Flag Weather past 2 weeks in Fetsund, Norway

Now
32 °F

Overcast.


Feels Like: 29 °F
Forecast: 30 / 34 °F
Wind: 3 mph from Northeast

Location: Oslo-Blindern

Current Time: Nov 28, 2014 at 5:19:06 AM

Latest Report: Nov 28, 2014 at 4:00 AM


Visibility: 34 mi

Pressure: 30.33 "Hg

Humidity: 87%

Dew point: 29 °F

Location of FetsundLocation

Historic Weather in Fetsund — Graph

°F

Fetsund temperature yesterday

Maximum temperature yesterday: 32 °F (at 1:00 PM)
Minimum temperature yesterday: 27 °F (at 3:00 AM)
Average temperature yesterday: 30 °F

Past Weeks' High & Low Weather Summary

 TemperatureHumidityPressure
High45 °F (Nov 24, 9:00 AM)99% (Nov 26, 10:00 PM)30.52 "Hg (Nov 26, 10:00 PM)
Low27 °F (Nov 27, 3:00 AM)72% (Nov 17, 11:00 AM)29.66 "Hg (Nov 24, 8:00 AM)
Average38 °F88%30.24 "Hg
* Reported Nov 13 3:00 AM — Nov 28 3:00 AM, Fetsund, Weather by CustomWeather, © 2014

Note: Actual official high and low records may vary slightly from our data, if they occured in-between our weather recording intervals... More about our weather records

Advertising

Fetsund weather history for previous 24 hours

 ConditionsComfort  
Time TempWeatherWind HumidityBarometerVisibility
3:00 AM
Nov 28
32 °FChilly.3 mph87%30.33 "HgN/A
2:00 AM32 °FChilly.3 mph85%30.32 "HgN/A
1:00 AM32 °FOvercast.5 mph87%30.31 "Hg34 mi
12:00 AM32 °FChilly.3 mph86%30.30 "HgN/A
11:00 PM
Nov 27
32 °FChilly.3 mph86%30.31 "HgN/A
10:00 PM31 °FLight snow. Overcast.2 mph90%30.30 "Hg3 mi
9:00 PM31 °FChilly.3 mph86%30.29 "HgN/A
8:00 PM31 °FChilly.5 mph86%30.27 "HgN/A
7:00 PM31 °FOvercast.5 mph87%30.26 "Hg40 mi
6:00 PM31 °FChilly.3 mph87%30.26 "HgN/A
5:00 PM30 °FChilly.5 mph90%30.25 "HgN/A
4:00 PM31 °FOvercast.3 mph89%30.24 "Hg34 mi
3:00 PM31 °FChilly.5 mph88%30.23 "HgN/A
2:00 PM32 °FChilly.3 mph87%30.24 "HgN/A
1:00 PM32 °FOvercast.3 mph88%30.24 "Hg34 mi
12:00 PM31 °FChilly.2 mph90%30.24 "HgN/A
11:00 AM30 °FChilly.3 mph90%30.25 "HgN/A
10:00 AM30 °FLow clouds.2 mph92%30.25 "Hg12 mi
9:00 AM30 °FChilly.2 mph93%30.24 "HgN/A
8:00 AM30 °FChilly.2 mph94%30.23 "HgN/A
7:00 AM30 °FLow clouds.1 mph93%30.23 "Hg9 mi
6:00 AM30 °FChilly.1 mph93%30.22 "HgN/A
5:00 AM29 °FChilly.1 mph95%30.22 "HgN/A
Weather by CustomWeather, © 2014

See weather overviewHow to use our weather pages